Regional Weather Roundup
Issued by NWS Kansas City/Pleasant Hill, MO

Home | Current Version | Previous Version | Graphics & Text | Print | Product List | Glossary Off
Versions: 1 2 3 4 5 6 7 8 9 10 11 12 13 14 15 16 17 18 19 20 21 22 23 24 25 26 27 28 29 30 31 32 33 34 35 36 37 38 39 40 41 42 43 44 45 46 47 48 49 50

000
ASUS43 KEAX 040910
RWREAX

WEATHER ROUNDUP FOR EASTERN KANSAS AND NORTHWEST MISSOURI
NATIONAL WEATHER SERVICE KANSAS CITY/PLEASANT HILL MO
400 AM CDT FRI SEP 04 2015

KSZ040-057-103>105-MOZ028-029-037-043-041000-
...KANSAS CITY METROPOLITAN AREA...

CITY           SKY/WX    TMP DP  RH WIND       PRES   REMARKS
K.C. INTL      PTCLDY    73  67  81 S10       29.94R
K.C. DOWNTOWN  PTCLDY    77  67  71 SW6       29.92S
LEES SUMMIT    PTCLDY    73  67  81 S6        29.95S
OLATHE - IXD   PTCLDY    71  67  87 S6        29.95S
OLATHE - OJC   PTCLDY    70  67  90 S3        29.94S
LAWRENCE       MOCLDY    71  68  90 SE6       29.92S

$$

MOZ001>008-011>017-020>025-030>033-038>040-044>046-053-054-041000-
...NORTHERN AND CENTRAL MISSOURI...

CITY           SKY/WX    TMP DP  RH WIND       PRES   REMARKS
ST. JOSEPH     MOCLDY    72  68  87 S5        29.92S
MOSBY          MOSUNNY   70  68  94 CALM      29.94R
WARRENSBURG    PTCLDY    72  68  88 SE5       29.94F
WHITEMAN AFB   PTCLDY    71  68  88 S6        29.95S
CLINTON        CLEAR     70  70 100 CALM      29.96S
SEDALIA        PTCLDY    72  67  84 S6        29.97S
WARSAW         NOT AVBL
CHILLICOTHE      N/A     70  68  93 CALM      29.96R
KIRKSVILLE     CLEAR     68  65  90 CALM      29.98R

$$

MOZ041-047>049-056>058-063>065-088>090-097-041000-
...EASTERN AND SOUTHERN MISSOURI...

CITY           SKY/WX    TMP DP  RH WIND       PRES   REMARKS
ST. LOUIS INTL CLEAR     78  68  71 SW3       29.98R
SPIRIT OF STL  CLEAR     70  69  97 CALM      29.97R FOG
COLUMBIA       CLEAR     71  68  90 SE5       29.98S
JEFFERSON CITY CLEAR     69  67  93 E3        29.97R
ROLLA          CLEAR     71  67  87 S8        29.99R
OSAGE BEACH    PTCLDY    72  66  83 SE5       29.98S
SPRINGFIELD    CLEAR     72  67  84 SE7       29.98S
BRANSON        CLEAR     73  66  78 CALM      30.01S
JOPLIN         MOCLDY    74  67  78 SE8       29.95S
WEST PLAINS    CLEAR     69  65  86 CALM      30.03R

$$

IAZ060-094-KSZ022-034>040-054-083-096-NEZ052-066-093-041000-
...KANSAS...SOUTHEAST NEBRASKA AND IOWA...

CITY           SKY/WX    TMP DP  RH WIND       PRES   REMARKS
TOPEKA         MOCLDY    75  68  78 S8        29.91S
MANHATTAN      MOCLDY    77  67  71 S7        29.88S
EMPORIA        MOCLDY    72  68  87 S13       29.92S
CHANUTE        MOCLDY    73  69  87 SE7       29.93S
WICHITA        MOCLDY    74  64  71 SE10      29.90S
OMAHA          MOCLDY    75  68  78 S13       29.86F
LINCOLN        CLOUDY    77  67  71 S14       29.86S
FALLS CITY     MOCLDY    74  68  81 S8        29.89S
LAMONI         CLEAR     71  67  87 S5        29.95R
DES MOINES     PTCLDY    73  67  81 S7        29.92S

$$




USA.gov is the U.S. government's official web portal to all federal, state and local government web resources and services.